カタログに戻る

NSS 12

運用中通信GEO
NORAD 36032·PAYLOAD·🇱🇺 Luxembourg

打ち上げ Oct 29, 2009 から Guiana Space Centre

Loading…

TLE

最新Source: CelesTrak SupGP

元期: Sep 13, 2026, 23:30 UTC

1 36032C 09058A   26256.97916667 -.00003670  00000+0  00000+0 0  2569
2 36032   0.0085 106.3753 0003323  26.9365 269.1555  1.00272195    17

AllMySatでNSS 12をリアルタイム追跡

Download on the App Store